Location: Arclight Observatory
(36.5667°N, 87.3333°W)
Time: 05:35:11
(UTC-05:00)

ISS - Visible Passes

Search period start: 25 September 2016 00:00
Search period end: 05 October 2016 00:00
Orbit: 400 x 410 km, 51.6° (Epoch: 25 September)

Date Brightness Start Highest point End Pass type
(mag) Time Alt. Az. Time Alt. Az. Time Alt. Az.
25 Sep -1.7 05:40:30 18° SW 05:40:30 18° SW 05:42:49 10° S visible
26 Sep -1.5 19:47:56 10° S 19:49:29 18° SSE 19:49:29 18° SSE visible
27 Sep -1.7 20:31:22 10° WSW 20:33:15 31° WSW 20:33:15 31° WSW visible
28 Sep -3.3 19:39:21 10° SW 19:42:31 57° SE 19:44:03 27° ENE visible
29 Sep -1.5 20:24:07 10° W 20:26:58 27° NNW 20:27:21 26° NNW visible
30 Sep -2.5 19:31:35 10° WSW 19:34:45 50° NW 19:37:44 11° NE visible
01 Oct -0.6 20:17:30 10° WNW 20:19:27 15° NNW 20:20:40 13° N visible
02 Oct -1.1 19:24:27 10° W 19:27:06 23° NNW 19:29:45 10° NNE visible
04 Oct -0.5 19:17:58 10° NW 19:19:33 13° NNW 19:21:08 10° N visible
